Location: Waitangi
(35.2500°S, 174.0833°E)
Time: 21:54:00
(UTC+00:00)

Daily predictions for brighter satellites

Satellite Brightness Start Highest point End
(mag) Time Altitude Azimuth Time Altitude Azimuth Time Altitude Azimuth
SL-16 R/B 4.1 14:31:33 10° SSE 14:34:59 31° SE 14:34:59 31° SE
Cosmos 2297 Rocket 3.9 14:58:05 27° E 14:58:05 27° E 15:01:58 10° SE
Lacrosse 5 rocket 4.4 15:09:28 13° SE 15:09:28 13° SE 15:09:54 10° SE
USA 229 DEB 4.3 15:11:47 57° NE 15:12:05 57° ENE 15:19:23 10° SE
USA 229 4.3 15:11:51 56° NE 15:12:10 57° ENE 15:19:28 10° SE
Cosmos 2237 Rocket 3.9 15:22:48 10° S 15:27:54 31° ESE 15:32:56 10° ENE
ALOS 4.5 15:27:19 10° ENE 15:31:04 24° ESE 15:34:51 10° SSE
CZ-2C R/B 4.2 15:35:17 23° S 15:35:17 23° S 15:37:10 10° S
ATLAS CENTAUR R/B 3.4 15:37:03 26° SSE 15:37:03 26° SSE 15:39:10 10° SSE
CZ-2C R/B 3.9 15:37:34 15° E 15:37:34 15° E 15:38:19 10° E
ISS -0.6 15:43:42 13° E 15:43:42 13° E 15:44:31 10° E
DELTA 2 R/B (1) 4.0 15:42:36 55° S 15:42:36 55° S 15:48:00 10° ESE
Cosmos 1821 Rocket 4.0 15:52:09 61° SW 15:52:09 61° SW 15:57:34 10° S
Meteor 1-25 Rocket 4.1 15:53:38 74° SSW 15:53:38 74° SSW 15:58:49 10° S
Cosmos 2227 Rocket 2.2 15:54:20 71° NNE 15:54:53 80° ENE 16:00:37 10° SSE
Cosmos 1000 Rocket 4.4 15:48:57 10° S 15:55:22 87° W 15:58:31 32° N
Cosmos 1934 Rocket 4.1 15:53:36 37° N 15:56:15 77° E 16:02:38 10° S
NOSS 3-1 (C) 4.2 16:01:36 48° WNW 16:03:48 61° SW 16:11:42 10° SSE
Gblst 52 Del rocket 4.3 16:05:31 63° W 16:06:24 74° SW 16:12:11 10° SE
Cosmos 1500 4.2 16:10:51 35° NE 16:11:54 45° E 16:15:33 10° SSE
Cosmos 1484 Rocket 3.2 16:10:20 26° NNE 16:12:26 64° ESE 16:16:22 10° S
Cosmos 2242 Rocket 3.9 16:10:25 10° S 16:14:55 66° E 16:19:20 10° NNE
SL-19 R/B 4.4 16:09:25 10° S 16:15:47 67° WSW 16:17:40 44° NW
Cosmos 2219 3.4 16:16:40 48° WSW 16:16:59 49° WSW 16:22:34 10° S
deb Chang Zheng 4 4.1 16:20:26 43° SW 16:20:26 43° SW 16:23:27 10° SSW
Cosmos 1356 4.0 16:21:27 52° SSE 16:21:27 52° SSE 16:24:11 10° S
SL-16 R/B 3.8 16:15:56 10° SSW 16:20:05 24° SW 16:20:05 24° SW
Meteor 1-31 Rocket 2.9 16:21:07 10° NNE 16:25:04 77° ESE 16:29:04 10° S
METEOR-M 4.1 16:21:24 10° NNE 16:26:46 84° ESE 16:32:11 10° SSW
IRIDIUM 106 4.3 16:22:58 10° N 16:28:13 89° W 16:33:32 10° S
Cosmos 1605 Rocket 3.9 16:23:52 10° N 16:30:12 89° W 16:36:31 10° S
Meteor 1-14 Rocket 4.1 16:27:17 28° NNW 16:30:19 68° W 16:36:05 10° S
USA 215 4.1 16:25:26 10° ENE 16:31:42 49° SE 16:37:59 10° SSW
H-2A R/B 4.0 16:29:02 10° SE 16:32:41 29° E 16:36:22 10° NNE
ADEOS 3.7 16:28:18 10° N 16:33:21 49° W 16:38:28 10° SSW
Meteor 1-28 Rocket 4.4 16:33:23 10° S 16:35:48 28° SW 16:35:48 28° SW
SL-08 R/B 3.5 16:33:15 10° S 16:38:07 54° WSW 16:40:09 32° NW
SEDSat Delta rocket 4.1 16:37:58 28° NNW 16:38:14 29° NNW 16:42:26 10° NE
Cosmos 1933 Rocket 4.4 16:41:00 31° WSW 16:41:00 31° WSW 16:44:29 10° SSW
GEOS 3 Rocket 3.6 16:35:31 10° NNE 16:40:34 54° WNW 16:45:36 10° SW
Cosmos 2297 Rocket 2.9 16:39:56 31° W 16:41:02 34° WSW 16:46:11 10° S
CZ-4B R/B 3.0 16:38:48 10° NNE 16:42:36 74° ESE 16:46:41 10° S
Cosmos 2123 Rocket 4.0 16:37:20 10° SSW 16:43:27 58° W 16:49:30 10° N
Cosmos 489 Rocket 4.4 16:38:28 10° SSW 16:44:51 68° WNW 16:51:09 10° N
Lacrosse 5 rocket 3.5 16:45:06 13° SW 16:45:22 13° SW 16:47:17 10° S
CZ-4B R/B 4.1 16:43:19 10° N 16:47:39 54° W 16:51:52 10° SSW
Cosmos 773 Rocket 4.0 16:43:07 10° SSW 16:48:26 84° ESE 16:53:37 10° NNE
Cosmos 1242 Rocket 3.7 16:45:03 10° S 16:48:35 45° E 16:52:05 10° NNE
FENGYUN 3A 3.9 16:44:50 10° N 16:50:05 48° W 16:55:24 10° SSW
Cosmos 2082 3.7 16:46:15 20° NW 16:50:18 63° WSW 16:56:02 10° SSE
NOSS 0 Rocket 4.5 16:47:28 10° SW 16:52:55 33° WNW 16:58:21 10° NNW
Meteor 2-4 Rocket 3.7 16:51:15 10° S 16:57:12 85° W 17:02:54 10° N
Cosmos 1869 Rocket 3.7 16:56:19 10° NNW 17:00:35 52° W 17:04:58 10° S
SJ 16-02 2.1 16:57:26 10° N 17:01:46 55° ENE 17:06:10 10° SSE
Cosmos 2263 Rocket 3.7 16:57:12 10° N 17:02:24 38° ENE 17:07:39 10° SE
USA 281 3.2 16:56:49 10° NNE 17:03:22 74° WNW 17:10:01 10° SSW
ALOS 3.1 17:04:14 10° NNW 17:08:18 29° W 17:12:24 10° SW
Cosmos 2100 Rocket 4.3 17:03:34 10° N 17:09:50 74° E 17:16:06 10° S
Meteor 1-11 Rocket 3.7 17:04:34 10° N 17:10:06 90° W 17:15:45 10° S
Cosmos 2237 Rocket 2.9 17:06:50 10° SW 17:11:51 32° WNW 17:16:49 10° NNW
H-2A R/B 2.9 17:08:22 10° NNE 17:12:51 72° ESE 17:17:17 10° S
BREEZE-M DEB (TANK) 3.1 17:08:10 10° SW 17:13:01 41° SSE 17:15:16 10° E
SL-16 R/B 2.3 17:07:43 10° SSW 17:13:28 86° ESE 17:19:11 10° NNE
Meteor PRIRODA 3.8 17:10:35 10° N 17:14:08 50° W 17:17:44 10° SSW
Cosmos 1980 4.5 17:09:33 10° SW 17:14:18 28° WNW 17:19:00 10° NNW
CZ-2C R/B 1.0 17:11:55 20° W 17:14:18 87° N 17:18:13 10° E
Cosmos 1459 Rocket 4.2 17:08:55 10° N 17:15:00 74° E 17:21:15 10° S
ISS -3.1 17:16:42 18° W 17:18:50 41° SW 17:22:06 10° SE
Meteor 1-13 Rocket 4.2 17:16:16 10° S 17:21:59 87° W 17:27:32 10° N
TELKOM 3 4.1 17:22:21 19° WSW 17:23:18 26° SSW 17:25:19 10° SSE
SeaSat 1 3.4 17:19:15 10° NE 17:24:02 52° ESE 17:28:52 10° SSW
Okean 1-7 4.0 17:22:03 10° SSW 17:25:42 26° W 17:29:17 10° NW
DELTA 2 R/B (1) 3.7 17:23:35 10° WSW 17:29:16 82° SSE 17:34:55 10° ENE
Cosmos 2227 4.4 17:27:45 10° NNW 17:33:23 79° ENE 17:39:06 10° SSE
CZ-4C R/B 3.9 17:32:14 10° S 17:35:27 31° WSW 17:38:42 10° NW
Cosmos 1538 Rocket 4.1 17:31:38 10° SSW 17:36:49 55° WNW 17:41:51 10° N
ATLAS 2A CENTAUR R/B 3.7 17:35:12 10° NW 17:39:34 42° NNE 17:55:11 10° E
Cosmos 2227 Rocket 4.0 17:36:45 10° W 17:39:36 14° SW 17:42:29 10° SSW
NOAA 6 4.0 17:36:39 10° N 17:41:50 75° WNW 17:47:04 10° SSW
MOS 1-B 4.4 17:42:07 10° N 17:47:50 61° WNW 17:53:39 10° SSW
